User: anonymous   Login
Location: Mount Tamalpais State Park
(37.9108°N, 122.6128°W)
Time: 15:30:02
(UTC-07:00)
Language:

Cosmos 1814 Rocket - Orbit

View from above orbital plane
View from above orbital plane
View from above satellite
View from above satellite

Ground track
Ground track

The orbit data is extracted from the following two-line orbital elements,

1 17304U 87006B   17116.73679163 +.00000065 +00000-0 +30240-4 0  9998
2 17304 074.0591 185.2390 0029121 034.9398 325.3659 14.37597497585683
Epoch (UTC): 26 April 2017 17:40:58
Eccentricity: 0.0029121
inclination: 74.0591°
perigee height: 745 km
apogee height: 787 km
right ascension of ascending node: 185.2390°
argument of perigee: 34.9398°
revolutions per day: 14.37597497
mean anomaly at epoch: 325.3659°
orbit number at epoch: 58568

The dashed part of the orbit path shows where the satellite is in the earth's shadow,  

DLR